| time (UTC) | temp F | wind direction | speed knots | gust knots | rain 1hr in | rain 24hr in | rain mn in | humidity % | barometer mb |
| 20260505052204 | 54 | 280 | 2.6 | 4.3 | 0.00 | 0.00 | 0.00 | 85 | 1011.4 |
| 20260505051704 | 54 | 266 | 1.7 | 4.3 | 0.00 | 0.00 | 0.00 | 84 | 1011.3 |
| 20260505051204 | 54 | 266 | 0.9 | 4.3 | 0.00 | 0.00 | 0.00 | 84 | 1011.3 |
| 20260505050704 | 54 | 281 | 2.6 | 5.2 | 0.00 | 0.00 | 0.00 | 84 | 1011.3 |
| 20260505050204 | 54 | 289 | 2.6 | 5.2 | 0.00 | 0.00 | 0.00 | 83 | 1011.2 |
| 20260505041703 | 56 | 256 | 2.6 | 5.2 | 0.00 | 0.00 | 0.00 | 79 | 1010.7 |
| 20260505040703 | 57 | 266 | 2.6 | 5.2 | 0.00 | 0.00 | 0.00 | 79 | 1010.7 |
| 20260505040203 | 57 | 284 | 2.6 | 6.1 | 0.00 | 0.00 | 0.00 | 78 | 1010.7 |
| 20260505035703 | 57 | 255 | 4.3 | 7.0 | 0.00 | 0.00 | 0.00 | 78 | 1010.5 |
| 20260505035202 | 57 | 276 | 2.6 | 7.0 | 0.00 | 0.00 | 0.00 | 78 | 1010.6 |
| 20260505034703 | 57 | 267 | 4.3 | 7.0 | 0.00 | 0.00 | 0.00 | 77 | 1010.4 |
| 20260505034202 | 58 | 269 | 2.6 | 8.7 | 0.00 | 0.00 | 0.00 | 77 | 1010.4 |
| 20260505033702 | 58 | 281 | 5.2 | 8.7 | 0.00 | 0.00 | 0.00 | 76 | 1010.2 |
| 20260505033202 | 58 | 269 | 4.3 | 7.8 | 0.00 | 0.00 | 0.00 | 75 | 1010.3 |
| 20260505032702 | 58 | 261 | 2.6 | 7.8 | 0.00 | 0.00 | 0.00 | 75 | 1010.2 |
| 20260505032202 | 59 | 255 | 1.7 | 8.7 | 0.00 | 0.00 | 0.00 | 74 | 1010.1 |
| 20260505031202 | 60 | 246 | 8.7 | 8.7 | 0.00 | 0.00 | 0.00 | 73 | 1010.1 |
| 20260505030702 | 60 | 257 | 4.3 | 7.8 | 0.00 | 0.00 | 0.00 | 72 | 1010.0 |
| 20260505030202 | 61 | 217 | 2.6 | 10.4 | 0.00 | 0.00 | 0.00 | 71 | 1010.0 |
| 20260505025702 | 61 | 278 | 4.3 | 10.4 | 0.00 | 0.00 | 0.00 | 69 | 1009.9 |
| 20260505024702 | 62 | 275 | 6.1 | 9.6 | 0.00 | 0.00 | 0.00 | 68 | 1009.7 |
| 20260505024201 | 62 | 253 | 3.5 | 9.6 | 0.00 | 0.00 | 0.00 | 67 | 1009.7 |
| 20260505023702 | 63 | 276 | 2.6 | 8.7 | 0.00 | 0.00 | 0.00 | 67 | 1009.7 |
| 20260505022702 | 63 | 247 | 0.0 | 10.4 | 0.00 | 0.00 | 0.00 | 67 | 1009.9 |
| 20260505022201 | 63 | 262 | 4.3 | 10.4 | 0.00 | 0.00 | 0.00 | 66 | 1009.9 |
| 20260505021701 | 63 | 238 | 3.5 | 12.2 | 0.00 | 0.00 | 0.00 | 65 | 1009.9 |
| 20260505021201 | 63 | 278 | 4.3 | 12.2 | 0.00 | 0.00 | 0.00 | 65 | 1010.0 |
| 20260505020701 | 64 | 236 | 2.6 | 11.3 | 0.00 | 0.00 | 0.00 | 64 | 1010.0 |
| 20260505015701 | 65 | 263 | 2.6 | 13.9 | 0.00 | 0.00 | 0.00 | 64 | 1010.1 |
| 20260505015200 | 65 | 255 | 3.5 | 13.9 | 0.00 | 0.00 | 0.00 | 64 | 1010.1 |
| 20260505014200 | 66 | 311 | 5.2 | 13.0 | 0.00 | 0.00 | 0.00 | 63 | 1010.1 |
| 20260505013701 | 66 | 248 | 6.1 | 11.3 | 0.00 | 0.00 | 0.00 | 61 | 1010.1 |
| 20260505013200 | 66 | 266 | 3.5 | 12.2 | 0.00 | 0.00 | 0.00 | 62 | 1010.2 |
| 20260505012700 | 66 | 264 | 6.1 | 12.2 | 0.00 | 0.00 | 0.00 | 61 | 1010.2 |
| 20260505012200 | 67 | 290 | 3.5 | 13.0 | 0.00 | 0.00 | 0.00 | 61 | 1010.2 |
| 20260505011200 | 67 | 277 | 7.8 | 12.2 | 0.00 | 0.00 | 0.00 | 61 | 1010.3 |
| 20260505010700 | 67 | 344 | 7.8 | 14.8 | 0.00 | 0.00 | 0.00 | 61 | 1010.4 |
| 20260505010200 | 67 | 307 | 7.0 | 14.8 | 0.00 | 0.00 | 0.00 | 60 | 1010.4 |
| 20260505005700 | 67 | 318 | 7.0 | 13.9 | 0.00 | 0.00 | 0.00 | 60 | 1010.4 |
| 20260505005159 | 67 | 298 | 1.7 | 17.4 | 0.00 | 0.00 | 0.00 | 60 | 1010.4 |
| 20260505004659 | 67 | 151 | 2.6 | 17.4 | 0.00 | 0.00 | 0.00 | 61 | 1010.4 |
| 20260505004159 | 68 | 289 | 4.3 | 12.2 | 0.00 | 0.00 | 0.00 | 60 | 1010.4 |
| 20260505003700 | 68 | 273 | 7.0 | 13.0 | 0.00 | 0.00 | 0.00 | 61 | 1010.4 |
| 20260505003159 | 68 | 249 | 2.6 | 16.5 | 0.00 | 0.00 | 0.00 | 60 | 1010.7 |
| 20260505002700 | 68 | 281 | 4.3 | 16.5 | 0.00 | 0.00 | 0.00 | 59 | 1010.6 |
| 20260505002200 | 69 | 288 | 3.5 | 8.7 | 0.00 | 0.00 | 0.00 | 59 | 1010.6 |
| 20260505001659 | 69 | 258 | 3.5 | 9.6 | 0.00 | 0.00 | 0.00 | 59 | 1010.8 |
| 20260505001159 | 68 | 285 | 3.5 | 10.4 | 0.00 | 0.00 | 0.00 | 59 | 1010.7 |
| 20260505000659 | 68 | 234 | 3.5 | 10.4 | 0.00 | 0.00 | 0.00 | 59 | 1010.6 |
| 20260505000159 | 68 | 281 | 2.6 | 11.3 | 0.00 | 0.00 | 0.00 | 59 | 1010.6 |
| 20260504235659 | 68 | 293 | 4.3 | 11.3 | 0.00 | 0.00 | 0.00 | 59 | 1010.7 |
| 20260504235159 | 68 | 259 | 3.5 | 10.4 | 0.00 | 0.00 | 0.00 | 58 | 1010.6 |
| 20260504234659 | 68 | 246 | 2.6 | 9.6 | 0.00 | 0.00 | 0.00 | 58 | 1010.7 |
| 20260504234158 | 68 | 292 | 5.2 | 9.6 | 0.00 | 0.00 | 0.00 | 57 | 1010.7 |
| 20260504233658 | 68 | 322 | 7.0 | 10.4 | 0.00 | 0.00 | 0.00 | 57 | 1010.7 |
| 20260504233158 | 68 | 271 | 3.5 | 12.2 | 0.00 | 0.00 | 0.00 | 57 | 1010.7 |
| 20260504232659 | 68 | 259 | 6.1 | 12.2 | 0.00 | 0.00 | 0.00 | 56 | 1010.7 |
| 20260504232158 | 68 | 259 | 4.3 | 10.4 | 0.00 | 0.00 | 0.00 | 56 | 1010.6 |
| 20260504231658 | 68 | 304 | 4.3 | 10.4 | 0.00 | 0.00 | 0.00 | 57 | 1010.6 |
| 20260504231158 | 68 | 276 | 3.5 | 10.4 | 0.00 | 0.00 | 0.00 | 56 | 1010.7 |
| 20260504230658 | 67 | 271 | 5.2 | 10.4 | 0.00 | 0.00 | 0.00 | 57 | 1010.6 |
| 20260504230158 | 67 | 256 | 7.8 | 10.4 | 0.00 | 0.00 | 0.00 | 57 | 1010.7 |
| 20260504225657 | 67 | 320 | 3.5 | 9.6 | 0.00 | 0.00 | 0.00 | 59 | 1011.0 |
| 20260504225157 | 66 | 269 | 4.3 | 8.7 | 0.00 | 0.00 | 0.00 | 59 | 1010.8 |
| 20260504224657 | 66 | 292 | 5.2 | 11.3 | 0.00 | 0.00 | 0.00 | 60 | 1010.9 |
| 20260504224157 | 66 | 279 | 5.2 | 11.3 | 0.00 | 0.00 | 0.00 | 59 | 1010.9 |
| 20260504223658 | 66 | 284 | 3.5 | 10.4 | 0.00 | 0.00 | 0.00 | 59 | 1010.9 |
| 20260504223158 | 67 | 269 | 7.0 | 9.6 | 0.00 | 0.00 | 0.00 | 58 | 1011.0 |
| 20260504222657 | 67 | 288 | 5.2 | 9.6 | 0.00 | 0.00 | 0.00 | 58 | 1010.9 |
| 20260504222157 | 67 | 320 | 3.5 | 9.6 | 0.00 | 0.00 | 0.00 | 58 | 1011.0 |
| 20260504221657 | 68 | 264 | 4.3 | 7.8 | 0.00 | 0.00 | 0.00 | 57 | 1011.1 |
| 20260504221157 | 68 | 283 | 2.6 | 6.1 | 0.00 | 0.00 | 0.00 | 58 | 1011.1 |
| 20260504220657 | 68 | 344 | 1.7 | 6.1 | 0.00 | 0.00 | 0.00 | 58 | 1011.1 |
| 20260504220157 | 68 | 1 | 6.1 | 6.1 | 0.00 | 0.00 | 0.00 | 57 | 1011.1 |
| 20260504215656 | 68 | 290 | 4.3 | 5.2 | 0.00 | 0.00 | 0.00 | 58 | 1011.0 |
| 20260504215156 | 68 | 274 | 4.3 | 5.2 | 0.00 | 0.00 | 0.00 | 58 | 1011.0 |
| 20260504214656 | 67 | 292 | 3.5 | 7.0 | 0.00 | 0.00 | 0.00 | 59 | 1011.1 |
| 20260504214156 | 66 | 295 | 3.5 | 7.0 | 0.00 | 0.00 | 0.00 | 59 | 1011.2 |
| 20260504213156 | 65 | 274 | 3.5 | 7.8 | 0.00 | 0.00 | 0.00 | 60 | 1011.4 |
| 20260504212656 | 66 | 257 | 6.1 | 7.8 | 0.00 | 0.00 | 0.00 | 58 | 1011.5 |
| 20260504212156 | 68 | 279 | 5.2 | 7.8 | 0.00 | 0.00 | 0.00 | 58 | 1011.5 |
| 20260504211656 | 67 | 295 | 4.3 | 7.8 | 0.00 | 0.00 | 0.00 | 59 | 1011.5 |
| 20260504211156 | 67 | 298 | 2.6 | 8.7 | 0.00 | 0.00 | 0.00 | 59 | 1011.3 |
| 20260504210655 | 68 | 270 | 5.2 | 8.7 | 0.00 | 0.00 | 0.00 | 59 | 1011.4 |
| 20260504210156 | 70 | 261 | 6.1 | 7.0 | 0.00 | 0.00 | 0.00 | 55 | 1011.4 |
| 20260504205656 | 71 | 287 | 3.5 | 7.0 | 0.00 | 0.00 | 0.00 | 53 | 1011.6 |
| 20260504205156 | 71 | 309 | 2.6 | 6.1 | 0.00 | 0.00 | 0.00 | 50 | 1011.5 |
| 20260504204655 | 71 | 269 | 0.9 | 6.1 | 0.00 | 0.00 | 0.00 | 48 | 1011.5 |
| 20260504204155 | 71 | 255 | 1.7 | 5.2 | 0.00 | 0.00 | 0.00 | 49 | 1011.5 |
| 20260504203656 | 71 | 311 | 2.6 | 5.2 | 0.00 | 0.00 | 0.00 | 48 | 1011.5 |
| 20260504203155 | 70 | 329 | 1.7 | 5.2 | 0.00 | 0.00 | 0.00 | 50 | 1011.5 |
| 20260504202655 | 71 | 271 | 2.6 | 5.2 | 0.00 | 0.00 | 0.00 | 49 | 1011.5 |
| 20260504202155 | 70 | 75 | 1.7 | 5.2 | 0.00 | 0.00 | 0.00 | 50 | 1011.5 |
| 20260504201655 | 69 | 316 | 0.9 | 5.2 | 0.00 | 0.00 | 0.00 | 52 | 1011.4 |
| 20260504201155 | 69 | 281 | 1.7 | 6.1 | 0.00 | 0.00 | 0.00 | 52 | 1011.5 |
| 20260504200654 | 69 | 6 | 2.6 | 6.1 | 0.00 | 0.00 | 0.00 | 50 | 1011.5 |
| 20260504200155 | 69 | 316 | 2.6 | 6.1 | 0.00 | 0.00 | 0.00 | 54 | 1011.5 |
| 20260504195155 | 69 | 239 | 3.5 | 7.0 | 0.00 | 0.00 | 0.00 | 52 | 1011.5 |
| 20260504194154 | 69 | 330 | 2.6 | 6.1 | 0.00 | 0.00 | 0.00 | 54 | 1011.5 |
| 20260504193654 | 69 | 337 | 2.6 | 6.1 | 0.00 | 0.00 | 0.00 | 53 | 1011.5 |
| 20260504193154 | 69 | 272 | 4.3 | 6.1 | 0.00 | 0.00 | 0.00 | 55 | 1011.6 |
| 20260504191654 | 69 | 34 | 0.0 | 6.1 | 0.00 | 0.00 | 0.00 | 55 | 1011.6 |
| 20260504191154 | 69 | 340 | 2.6 | 6.1 | 0.00 | 0.00 | 0.00 | 54 | 1011.5 |
| 20260504190154 | 68 | 358 | 2.6 | 5.2 | 0.00 | 0.00 | 0.00 | 55 | 1011.5 |
| 20260504185653 | 68 | 302 | 3.5 | 5.2 | 0.00 | 0.00 | 0.00 | 56 | 1011.6 |
| 20260504185154 | 68 | 256 | 3.5 | 5.2 | 0.00 | 0.00 | 0.00 | 57 | 1011.6 |
| 20260504184653 | 68 | 306 | 2.6 | 3.5 | 0.00 | 0.00 | 0.00 | 58 | 1011.6 |
| 20260504182653 | 65 | 310 | 1.7 | 5.2 | 0.00 | 0.00 | 0.00 | 60 | 1011.7 |
| 20260504182153 | 65 | 281 | 1.7 | 5.2 | 0.00 | 0.00 | 0.00 | 60 | 1011.7 |
| 20260504181653 | 64 | 270 | 4.3 | 5.2 | 0.00 | 0.00 | 0.00 | 62 | 1011.8 |
| 20260504181153 | 64 | 247 | 2.6 | 6.1 | 0.00 | 0.00 | 0.00 | 62 | 1011.8 |
| 20260504180653 | 64 | 266 | 2.6 | 6.1 | 0.00 | 0.00 | 0.00 | 62 | 1011.9 |
| 20260504175653 | 64 | 308 | 3.5 | 5.2 | 0.00 | 0.00 | 0.00 | 62 | 1011.8 |
| 20260504175152 | 64 | 288 | 3.5 | 5.2 | 0.00 | 0.00 | 0.00 | 62 | 1011.7 |
| 20260504174652 | 64 | 271 | 1.7 | 6.1 | 0.00 | 0.00 | 0.00 | 62 | 1011.7 |
| 20260504174153 | 64 | 285 | 2.6 | 6.1 | 0.00 | 0.00 | 0.00 | 63 | 1011.7 |
| 20260504173652 | 64 | 279 | 2.6 | 5.2 | 0.00 | 0.00 | 0.00 | 64 | 1011.7 |
| 20260504173152 | 64 | 288 | 5.2 | 5.2 | 0.00 | 0.00 | 0.00 | 63 | 1011.7 |
| 20260504172652 | 63 | 296 | 0.0 | 5.2 | 0.00 | 0.00 | 0.00 | 64 | 1011.6 |
| 20260504172152 | 63 | 285 | 1.7 | 4.3 | 0.00 | 0.00 | 0.00 | 64 | 1011.6 |
| 20260504171152 | 63 | 266 | 0.0 | 4.3 | 0.00 | 0.00 | 0.00 | 65 | 1011.6 |
| 20260504170152 | 62 | 262 | 0.0 | 4.3 | 0.00 | 0.00 | 0.00 | 66 | 1011.7 |
| 20260504151150 | 61 | 260 | 0.9 | 3.5 | 0.00 | 0.00 | 0.00 | 66 | 1011.2 |
| 20260504150149 | 60 | 267 | 0.0 | 2.6 | 0.00 | 0.00 | 0.00 | 66 | 1011.1 |
| 20260504141148 | 61 | 267 | 0.0 | 0.0 | 0.00 | 0.00 | 0.00 | 66 | 1010.7 |
| 20260504140648 | 60 | 267 | 0.0 | 0.0 | 0.00 | 0.00 | 0.00 | 64 | 1010.8 |
| 20260504140148 | 59 | 267 | 0.0 | 0.0 | 0.00 | 0.00 | 0.00 | 63 | 1010.7 |
| 20260504130147 | 59 | 267 | 0.0 | 1.7 | 0.00 | 0.00 | 0.00 | 59 | 1010.3 |
| 20260504120146 | 59 | 347 | 0.0 | 0.0 | 0.00 | 0.00 | 0.00 | 62 | 1010.3 |
| 20260504110645 | 58 | 347 | 0.0 | 0.0 | 0.00 | 0.00 | 0.00 | 64 | 1010.4 |
| 20260504110145 | 58 | 347 | 0.0 | 0.0 | 0.00 | 0.00 | 0.00 | 64 | 1010.4 |
| 20260504100144 | 57 | 347 | 0.0 | 0.0 | 0.00 | 0.00 | 0.00 | 70 | 1010.4 |
| 20260504081642 | 59 | 307 | 0.0 | 0.9 | 0.00 | 0.00 | 0.00 | 64 | 1010.0 |
| 20260504081142 | 59 | 306 | 0.0 | 0.9 | 0.00 | 0.00 | 0.00 | 62 | 1010.0 |
| 20260504080142 | 59 | 307 | 0.0 | 0.0 | 0.00 | 0.00 | 0.00 | 61 | 1010.0 |
| 20260504070211 | 64 | 263 | 0.0 | 0.0 | 0.00 | 0.00 | 0.00 | 50 | 1010.2 |
| 20260504060140 | 63 | 243 | 1.7 | 4.3 | 0.00 | 0.00 | 0.00 | 52 | 1010.2 |